| time (UTC) | temp F | wind direction | speed MPH | gust MPH | rain 1hr in | rain 24hr in | rain mn in | humidity % | barometer mb |
| 20260504174102 | 60 | 274 | 4.0 | 4.0 | 0.00 | 0.00 | 0.00 | 27 | 1012.5 |
| 20260504173559 | 60 | 125 | 1.0 | 1.0 | 0.00 | 0.00 | 0.00 | 27 | 1012.6 |
| 20260504173057 | 60 | 347 | 8.0 | 8.0 | 0.00 | 0.00 | 0.00 | 26 | 1012.6 |
| 20260504172553 | 61 | 336 | 6.0 | 7.0 | 0.00 | 0.00 | 0.00 | 27 | 1012.5 |
| 20260504172050 | 60 | 297 | 3.0 | 3.0 | 0.00 | 0.00 | 0.00 | 27 | 1012.7 |
| 20260504171546 | 61 | 345 | 9.0 | 9.0 | 0.00 | 0.00 | 0.00 | 28 | 1012.7 |
| 20260504171044 | 61 | 335 | 4.0 | 6.0 | 0.00 | 0.00 | 0.00 | 27 | 1012.6 |
| 20260504170539 | 59 | 112 | 6.0 | 8.0 | 0.00 | 0.00 | 0.00 | 28 | 1012.6 |
| 20260504150923 | 51 | 104 | 0.0 | 0.0 | 0.00 | 0.00 | 0.00 | 36 | 1013.1 |
| 20260504150420 | 49 | 104 | 0.0 | 1.0 | 0.00 | 0.00 | 0.00 | 38 | 1013.4 |
| 20260504140846 | 39 | 21 | 3.0 | 4.0 | 0.00 | 0.00 | 0.00 | 51 | 1013.8 |
| 20260504140342 | 37 | 96 | 3.0 | 4.0 | 0.00 | 0.00 | 0.00 | 52 | 1013.8 |
| 20260504130811 | 30 | 94 | 0.0 | 0.0 | 0.00 | 0.00 | 0.00 | 66 | 1013.6 |
| 20260504130308 | 30 | 86 | 1.0 | 1.0 | 0.00 | 0.00 | 0.00 | 66 | 1013.6 |
| 20260504120231 | 28 | 19 | 1.0 | 2.0 | 0.00 | 0.00 | 0.00 | 66 | 1013.3 |
| 20260504110658 | 28 | 66 | 0.0 | 0.0 | 0.00 | 0.00 | 0.00 | 65 | 1013.7 |
| 20260504110154 | 28 | 59 | 0.0 | 0.0 | 0.00 | 0.00 | 0.00 | 66 | 1013.9 |
| 20260504100119 | 29 | 336 | 3.0 | 3.0 | 0.00 | 0.00 | 0.00 | 65 | 1013.8 |
| 20260504081512 | 35 | 36 | 1.0 | 1.0 | 0.00 | 0.00 | 0.00 | 60 | 1014.2 |
| 20260504081007 | 34 | 28 | 2.0 | 3.0 | 0.00 | 0.00 | 0.00 | 61 | 1014.3 |
| 20260504080504 | 34 | 52 | 1.0 | 1.0 | 0.00 | 0.00 | 0.00 | 60 | 1014.0 |
| 20260504050317 | 42 | 337 | 6.0 | 7.0 | 0.00 | 0.00 | 0.00 | 49 | 1014.9 |
| 20260504045814 | 42 | 353 | 7.0 | 8.0 | 0.00 | 0.00 | 0.00 | 48 | 1015.0 |
| 20260504045309 | 42 | 319 | 6.0 | 8.0 | 0.00 | 0.00 | 0.00 | 48 | 1014.9 |
| 20260504044806 | 41 | 331 | 4.0 | 4.0 | 0.00 | 0.00 | 0.00 | 49 | 1014.9 |
| 20260504044303 | 42 | 333 | 4.0 | 4.0 | 0.00 | 0.00 | 0.00 | 48 | 1015.2 |
| 20260504043800 | 43 | 338 | 4.0 | 6.0 | 0.00 | 0.00 | 0.00 | 47 | 1015.2 |
| 20260504043257 | 42 | 340 | 4.0 | 4.0 | 0.00 | 0.00 | 0.00 | 48 | 1015.3 |
| 20260504042755 | 43 | 333 | 3.0 | 3.0 | 0.00 | 0.00 | 0.00 | 47 | 1014.9 |
| 20260504042251 | 43 | 356 | 2.0 | 2.0 | 0.00 | 0.00 | 0.00 | 46 | 1015.2 |
| 20260504041748 | 45 | 340 | 3.0 | 3.0 | 0.00 | 0.00 | 0.00 | 44 | 1015.3 |
| 20260504041244 | 44 | 291 | 3.0 | 3.0 | 0.00 | 0.00 | 0.00 | 44 | 1015.3 |
| 20260504040740 | 45 | 299 | 3.0 | 3.0 | 0.00 | 0.00 | 0.00 | 43 | 1015.2 |
| 20260504040238 | 44 | 276 | 3.0 | 3.0 | 0.00 | 0.00 | 0.00 | 44 | 1015.2 |
| 20260504035733 | 44 | 290 | 2.0 | 3.0 | 0.00 | 0.00 | 0.00 | 44 | 1015.2 |
| 20260504035230 | 45 | 297 | 5.0 | 6.0 | 0.00 | 0.00 | 0.00 | 43 | 1015.0 |
| 20260504034728 | 44 | 315 | 5.0 | 7.0 | 0.00 | 0.00 | 0.00 | 43 | 1015.0 |
| 20260504034225 | 48 | 349 | 3.0 | 3.0 | 0.00 | 0.00 | 0.00 | 39 | 1015.0 |
| 20260504033723 | 49 | 280 | 4.0 | 4.0 | 0.00 | 0.00 | 0.00 | 39 | 1014.9 |
| 20260504033220 | 49 | 251 | 5.0 | 7.0 | 0.00 | 0.00 | 0.00 | 38 | 1014.8 |
| 20260504032717 | 50 | 275 | 6.0 | 7.0 | 0.00 | 0.00 | 0.00 | 37 | 1014.9 |
| 20260504032214 | 50 | 256 | 5.0 | 6.0 | 0.00 | 0.00 | 0.00 | 36 | 1014.9 |
| 20260504031710 | 50 | 292 | 5.0 | 6.0 | 0.00 | 0.00 | 0.00 | 36 | 1014.9 |
| 20260504031208 | 50 | 283 | 5.0 | 6.0 | 0.00 | 0.00 | 0.00 | 36 | 1014.8 |
| 20260504030703 | 50 | 274 | 6.0 | 8.0 | 0.00 | 0.00 | 0.00 | 36 | 1014.7 |
| 20260504030201 | 51 | 309 | 4.0 | 4.0 | 0.00 | 0.00 | 0.00 | 35 | 1014.5 |
| 20260504025657 | 51 | 243 | 6.0 | 7.0 | 0.00 | 0.00 | 0.00 | 35 | 1014.7 |
| 20260504025154 | 52 | 282 | 5.0 | 6.0 | 0.00 | 0.00 | 0.00 | 34 | 1014.5 |
| 20260504024651 | 52 | 271 | 5.0 | 7.0 | 0.00 | 0.00 | 0.00 | 34 | 1014.5 |
| 20260504024147 | 52 | 277 | 4.0 | 4.0 | 0.00 | 0.00 | 0.00 | 34 | 1014.4 |
| 20260504023644 | 52 | 273 | 4.0 | 6.0 | 0.00 | 0.00 | 0.00 | 34 | 1014.8 |
| 20260504023140 | 53 | 281 | 6.0 | 7.0 | 0.00 | 0.00 | 0.00 | 33 | 1014.5 |
| 20260504022637 | 55 | 284 | 6.0 | 7.0 | 0.00 | 0.00 | 0.00 | 32 | 1014.3 |
| 20260504022133 | 55 | 278 | 6.0 | 7.0 | 0.00 | 0.00 | 0.00 | 32 | 1014.4 |
| 20260504021631 | 55 | 282 | 6.0 | 7.0 | 0.00 | 0.00 | 0.00 | 32 | 1014.5 |
| 20260504021127 | 56 | 259 | 8.0 | 10.0 | 0.00 | 0.00 | 0.00 | 31 | 1014.5 |
| 20260504020625 | 56 | 273 | 11.0 | 14.0 | 0.00 | 0.00 | 0.00 | 30 | 1014.4 |
| 20260504020120 | 57 | 279 | 8.0 | 9.0 | 0.00 | 0.00 | 0.00 | 30 | 1014.4 |
| 20260504015617 | 58 | 302 | 9.0 | 11.0 | 0.00 | 0.00 | 0.00 | 28 | 1014.3 |
| 20260504015113 | 58 | 261 | 9.0 | 13.0 | 0.00 | 0.00 | 0.00 | 28 | 1014.4 |
| 20260504014609 | 58 | 260 | 8.0 | 10.0 | 0.00 | 0.00 | 0.00 | 28 | 1014.4 |
| 20260504014107 | 58 | 278 | 6.0 | 7.0 | 0.00 | 0.00 | 0.00 | 28 | 1014.4 |
| 20260504013604 | 58 | 269 | 6.0 | 8.0 | 0.00 | 0.00 | 0.00 | 27 | 1014.3 |
| 20260504013101 | 58 | 262 | 8.0 | 9.0 | 0.00 | 0.00 | 0.00 | 27 | 1014.3 |
| 20260504012558 | 59 | 275 | 7.0 | 8.0 | 0.00 | 0.00 | 0.00 | 26 | 1014.4 |
| 20260504012056 | 61 | 276 | 11.0 | 15.0 | 0.00 | 0.00 | 0.00 | 25 | 1014.3 |
| 20260504011553 | 62 | 247 | 10.0 | 13.0 | 0.00 | 0.00 | 0.00 | 24 | 1014.8 |
| 20260504011049 | 62 | 294 | 11.0 | 13.0 | 0.00 | 0.00 | 0.00 | 24 | 1014.4 |
| 20260504010544 | 62 | 279 | 10.0 | 11.0 | 0.00 | 0.00 | 0.00 | 23 | 1014.7 |
| 20260504010041 | 63 | 287 | 8.0 | 9.0 | 0.00 | 0.00 | 0.00 | 23 | 1014.5 |
| 20260504005538 | 63 | 279 | 6.0 | 9.0 | 0.00 | 0.00 | 0.00 | 23 | 1014.7 |
| 20260504005035 | 63 | 273 | 11.0 | 15.0 | 0.00 | 0.00 | 0.00 | 23 | 1014.7 |
| 20260504004533 | 63 | 265 | 14.0 | 16.0 | 0.00 | 0.00 | 0.00 | 23 | 1014.7 |
| 20260504004030 | 64 | 274 | 14.0 | 16.0 | 0.00 | 0.00 | 0.00 | 22 | 1014.7 |
| 20260504003526 | 64 | 291 | 12.0 | 15.0 | 0.00 | 0.00 | 0.00 | 22 | 1014.8 |
| 20260504003023 | 64 | 282 | 8.0 | 13.0 | 0.00 | 0.00 | 0.00 | 21 | 1014.5 |
| 20260504002520 | 65 | 291 | 12.0 | 18.0 | 0.00 | 0.00 | 0.00 | 21 | 1014.7 |
| 20260504002017 | 65 | 285 | 9.0 | 10.0 | 0.00 | 0.00 | 0.00 | 21 | 1014.7 |
| 20260504001515 | 65 | 307 | 7.0 | 9.0 | 0.00 | 0.00 | 0.00 | 20 | 1014.4 |
| 20260504001011 | 65 | 290 | 9.0 | 10.0 | 0.00 | 0.00 | 0.00 | 20 | 1014.5 |
| 20260504000508 | 63 | 300 | 6.0 | 7.0 | 0.00 | 0.00 | 0.00 | 21 | 1014.4 |
| 20260504000005 | 64 | 291 | 9.0 | 11.0 | 0.00 | 0.00 | 0.00 | 21 | 1014.5 |
| 20260503235503 | 65 | 339 | 7.0 | 8.0 | 0.00 | 0.00 | 0.00 | 20 | 1014.5 |
| 20260503235000 | 64 | 8 | 6.0 | 7.0 | 0.00 | 0.00 | 0.00 | 20 | 1014.7 |
| 20260503234457 | 63 | 80 | 4.0 | 6.0 | 0.00 | 0.00 | 0.00 | 20 | 1014.7 |
| 20260503233955 | 65 | 348 | 9.0 | 11.0 | 0.00 | 0.00 | 0.00 | 20 | 1014.8 |
| 20260503233452 | 64 | 352 | 12.0 | 13.0 | 0.00 | 0.00 | 0.00 | 20 | 1014.8 |
| 20260503232948 | 63 | 312 | 9.0 | 10.0 | 0.00 | 0.00 | 0.00 | 21 | 1014.8 |
| 20260503232445 | 63 | 329 | 8.0 | 10.0 | 0.00 | 0.00 | 0.00 | 21 | 1014.8 |
| 20260503231943 | 63 | 326 | 7.0 | 8.0 | 0.00 | 0.00 | 0.00 | 21 | 1015.0 |
| 20260503231440 | 63 | 326 | 9.0 | 10.0 | 0.00 | 0.00 | 0.00 | 22 | 1014.8 |
| 20260503230936 | 65 | 291 | 9.0 | 10.0 | 0.00 | 0.00 | 0.00 | 21 | 1015.0 |
| 20260503230433 | 66 | 294 | 6.0 | 7.0 | 0.00 | 0.00 | 0.00 | 19 | 1014.9 |
| 20260503225931 | 65 | 247 | 6.0 | 8.0 | 0.00 | 0.00 | 0.00 | 19 | 1015.0 |
| 20260503225427 | 65 | 247 | 9.0 | 10.0 | 0.00 | 0.00 | 0.00 | 19 | 1015.2 |
| 20260503224923 | 65 | 320 | 10.0 | 11.0 | 0.00 | 0.00 | 0.00 | 19 | 1015.2 |
| 20260503224420 | 64 | 280 | 7.0 | 8.0 | 0.00 | 0.00 | 0.00 | 19 | 1015.0 |
| 20260503223918 | 64 | 287 | 12.0 | 15.0 | 0.00 | 0.00 | 0.00 | 19 | 1015.2 |
| 20260503223416 | 64 | 286 | 8.0 | 9.0 | 0.00 | 0.00 | 0.00 | 19 | 1015.2 |
| 20260503222911 | 64 | 263 | 8.0 | 9.0 | 0.00 | 0.00 | 0.00 | 20 | 1015.0 |
| 20260503222410 | 63 | 229 | 6.0 | 7.0 | 0.00 | 0.00 | 0.00 | 20 | 1015.2 |
| 20260503221907 | 64 | 279 | 6.0 | 8.0 | 0.00 | 0.00 | 0.00 | 20 | 1015.4 |
| 20260503221406 | 64 | 262 | 6.0 | 9.0 | 0.00 | 0.00 | 0.00 | 20 | 1015.5 |
| 20260503220902 | 64 | 271 | 8.0 | 9.0 | 0.00 | 0.00 | 0.00 | 20 | 1015.5 |
| 20260503220358 | 64 | 271 | 4.0 | 6.0 | 0.00 | 0.00 | 0.00 | 20 | 1015.6 |
| 20260503215855 | 63 | 261 | 8.0 | 9.0 | 0.00 | 0.00 | 0.00 | 20 | 1015.6 |
| 20260503215353 | 64 | 305 | 6.0 | 7.0 | 0.00 | 0.00 | 0.00 | 20 | 1015.8 |
| 20260503214850 | 63 | 291 | 3.0 | 3.0 | 0.00 | 0.00 | 0.00 | 20 | 1015.8 |
| 20260503214347 | 63 | 260 | 3.0 | 4.0 | 0.00 | 0.00 | 0.00 | 20 | 1015.9 |
| 20260503213844 | 63 | 315 | 8.0 | 10.0 | 0.00 | 0.00 | 0.00 | 20 | 1016.1 |
| 20260503213342 | 63 | 355 | 3.0 | 4.0 | 0.00 | 0.00 | 0.00 | 21 | 1016.1 |
| 20260503212839 | 62 | 1 | 6.0 | 8.0 | 0.00 | 0.00 | 0.00 | 21 | 1015.9 |
| 20260503212337 | 63 | 267 | 8.0 | 11.0 | 0.00 | 0.00 | 0.00 | 21 | 1016.1 |
| 20260503211834 | 63 | 351 | 4.0 | 6.0 | 0.00 | 0.00 | 0.00 | 20 | 1016.0 |
| 20260503211330 | 63 | 287 | 8.0 | 10.0 | 0.00 | 0.00 | 0.00 | 20 | 1016.0 |
| 20260503210826 | 64 | 314 | 6.0 | 7.0 | 0.00 | 0.00 | 0.00 | 19 | 1016.3 |
| 20260503210323 | 64 | 353 | 3.0 | 3.0 | 0.00 | 0.00 | 0.00 | 19 | 1016.1 |
| 20260503205818 | 64 | 358 | 6.0 | 7.0 | 0.00 | 0.00 | 0.00 | 19 | 1016.1 |
| 20260503205315 | 63 | 5 | 3.0 | 4.0 | 0.00 | 0.00 | 0.00 | 20 | 1016.1 |
| 20260503204811 | 63 | 289 | 8.0 | 9.0 | 0.00 | 0.00 | 0.00 | 20 | 1016.4 |
| 20260503204309 | 63 | 309 | 10.0 | 13.0 | 0.00 | 0.00 | 0.00 | 20 | 1016.4 |
| 20260503203806 | 64 | 347 | 6.0 | 8.0 | 0.00 | 0.00 | 0.00 | 19 | 1016.5 |
| 20260503203303 | 64 | 287 | 11.0 | 15.0 | 0.00 | 0.00 | 0.00 | 19 | 1016.5 |
| 20260503202800 | 64 | 290 | 9.0 | 10.0 | 0.00 | 0.00 | 0.00 | 18 | 1016.6 |
| 20260503202258 | 65 | 270 | 5.0 | 6.0 | 0.00 | 0.00 | 0.00 | 18 | 1016.5 |
| 20260503201756 | 67 | 329 | 4.0 | 7.0 | 0.00 | 0.00 | 0.00 | 18 | 1016.6 |
| 20260503201253 | 66 | 254 | 7.0 | 8.0 | 0.00 | 0.00 | 0.00 | 18 | 1016.8 |
| 20260503200750 | 68 | 264 | 10.0 | 10.0 | 0.00 | 0.00 | 0.00 | 17 | 1016.6 |
| 20260503200245 | 65 | 349 | 5.0 | 6.0 | 0.00 | 0.00 | 0.00 | 18 | 1016.6 |
| 20260503195742 | 64 | 293 | 1.0 | 2.0 | 0.00 | 0.00 | 0.00 | 17 | 1016.8 |
| 20260503195239 | 64 | 189 | 6.0 | 7.0 | 0.00 | 0.00 | 0.00 | 17 | 1016.9 |
| 20260503194737 | 65 | 262 | 4.0 | 4.0 | 0.00 | 0.00 | 0.00 | 19 | 1017.1 |
| 20260503194232 | 66 | 100 | 0.0 | 0.0 | 0.00 | 0.00 | 0.00 | 17 | 1017.0 |
| 20260503193728 | 65 | 209 | 4.0 | 6.0 | 0.00 | 0.00 | 0.00 | 18 | 1017.0 |
| 20260503193225 | 65 | 242 | 5.0 | 7.0 | 0.00 | 0.00 | 0.00 | 18 | 1017.2 |
| 20260503192721 | 64 | 286 | 6.0 | 9.0 | 0.00 | 0.00 | 0.00 | 17 | 1017.5 |
| 20260503192216 | 65 | 271 | 9.0 | 10.0 | 0.00 | 0.00 | 0.00 | 17 | 1017.5 |
| 20260503191713 | 64 | 228 | 8.0 | 9.0 | 0.00 | 0.00 | 0.00 | 19 | 1017.1 |
| 20260503191210 | 65 | 288 | 9.0 | 10.0 | 0.00 | 0.00 | 0.00 | 17 | 1017.6 |
| 20260503190707 | 64 | 339 | 8.0 | 9.0 | 0.00 | 0.00 | 0.00 | 18 | 1017.5 |
| 20260503190203 | 65 | 276 | 4.0 | 4.0 | 0.00 | 0.00 | 0.00 | 18 | 1017.2 |
| 20260503185701 | 65 | 161 | 2.0 | 2.0 | 0.00 | 0.00 | 0.00 | 18 | 1017.6 |
| 20260503185156 | 64 | 167 | 4.0 | 4.0 | 0.00 | 0.00 | 0.00 | 19 | 1017.9 |
| 20260503184651 | 64 | 210 | 6.0 | 7.0 | 0.00 | 0.00 | 0.00 | 19 | 1017.9 |
| 20260503184148 | 63 | 227 | 7.0 | 8.0 | 0.00 | 0.00 | 0.00 | 20 | 1018.0 |
| 20260503183644 | 64 | 242 | 5.0 | 6.0 | 0.00 | 0.00 | 0.00 | 22 | 1018.1 |
| 20260503183142 | 63 | 272 | 8.0 | 9.0 | 0.00 | 0.00 | 0.00 | 21 | 1018.2 |
| 20260503182639 | 63 | 182 | 5.0 | 6.0 | 0.00 | 0.00 | 0.00 | 22 | 1018.2 |
| 20260503182138 | 62 | 320 | 4.0 | 8.0 | 0.00 | 0.00 | 0.00 | 22 | 1018.2 |
| 20260503181635 | 62 | 277 | 2.0 | 3.0 | 0.00 | 0.00 | 0.00 | 22 | 1018.3 |
| 20260503181131 | 60 | 281 | 3.0 | 3.0 | 0.00 | 0.00 | 0.00 | 24 | 1018.5 |
| 20260503180628 | 62 | 264 | 6.0 | 7.0 | 0.00 | 0.00 | 0.00 | 23 | 1018.6 |
| 20260503180126 | 62 | 169 | 3.0 | 3.0 | 0.00 | 0.00 | 0.00 | 22 | 1018.6 |
| 20260503175622 | 61 | 101 | 4.0 | 4.0 | 0.00 | 0.00 | 0.00 | 23 | 1018.8 |
| 20260503175119 | 62 | 177 | 4.0 | 6.0 | 0.00 | 0.00 | 0.00 | 23 | 1018.7 |
| 20260503174616 | 61 | 197 | 4.0 | 4.0 | 0.00 | 0.00 | 0.00 | 23 | 1018.8 |